Location: Izdebno
(52.6670°N, 16.2170°E)
Time: 09:36:38
(UTC+01:00)

Transit 2A - Pass Details

Date: 31 January 2023
Orbit: 591 x 964 km, 66.7° (Epoch: 21 March)

Event Time Altitude Azimuth Distance (km) Brightness Sun altitude
Rises 22:37:25 0° 305° (NW) 3,282 9.9 -50.3°
Enters shadow 22:38:36 - 311° (NW) 2,913 9.5 -50.4°
Reaches altitude 10° 22:40:22 10° 322° (NW) 2,423 - -50.6°
Maximum altitude 22:44:35 21° 10° (N) 1,853 - -50.9°
Drops below altitude 10° 22:49:04 10° 59° (ENE) 2,596 - -51.3°
Sets 22:52:21 0° 74° (ENE) 3,587 - -51.6°
